Weather History for PAKT - February, 2012

Change the Weather History Date:

Wednesday, February 8, 2012

  Actual Average Record
Temperature  
Mean Temperature 46 °F -  
Max Temperature 50 °F 41 °F 63 °F (1963)
Min Temperature 42 °F 31 °F 15 °F (2008)
Degree Days  
Heating Degree Days 19    
Moisture  
Dew Point 35 °F    
Average Humidity 69    
Maximum Humidity 100    
Minimum Humidity 43    
Precipitation  
Precipitation 0.38 in - - ()
Sea Level Pressure  
Sea Level Pressure 29.93 in    
Wind  
Wind Speed 6 mph (SSE)    
Max Wind Speed 16 mph    
Max Gust Speed 26 mph    
Visibility 9 miles    
Events Rain    
Averages and records for this station are not official NWS values.
T = Trace of Precipitation, MM = Missing Value Source: NWS Daily Summary

Daily Weather History Graph

Daily Weather History Graph

Search for Another Location

Airport or City:

Trip Planner

Search our weather history database for the weather conditions in past years. The results will help you decide how hot, cold, wet, or windy it might be!

Date:

Astronomy

Feb. 08, 2012 Rise Set
Actual Time 7:25 AM AKST 4:36 PM AKST
Civil Twilight 6:46 AM AKST 5:16 PM AKST
Nautical Twilight 6:03 AM AKST 5:59 PM AKST
Astronomical Twilight 5:21 AM AKST 6:42 PM AKST
Moon 6:29 PM AKST (2/8) 7:13 AM AKST (2/8)
Length of Visible Light 10h 29m
Length of Day
9h 11m
Full, 99% of the Moon is Illuminated
Feb 8
Full
Feb 14
Last Quarter
Feb 21
New
Feb 29
First Quarter
Mar 8
Full

Hourly Weather History & Observations

Time (AKST) Temp. Windchill Dew Point Humidity Pressure Visibility Wind Dir Wind Speed Gust Speed Precip Events Conditions
12:53 AM 43.0 °F 41.3 °F 28.0 °F 56% 29.78 in 10.0 mi SE 3.5 mph - N/A   Clear
1:53 AM 43.0 °F 41.3 °F 28.9 °F 58% 29.79 in 10.0 mi SE 3.5 mph - N/A   Mostly Cloudy
2:53 AM 44.1 °F 40.8 °F 28.9 °F 55% 29.81 in 10.0 mi SE 5.8 mph - N/A   Overcast
3:53 AM 44.1 °F 40.8 °F 28.9 °F 55% 29.81 in 10.0 mi SE 5.8 mph - N/A   Overcast
4:53 AM 42.1 °F 40.2 °F 32.0 °F 67% 29.81 in 10.0 mi SE 3.5 mph - N/A   Overcast
5:53 AM 46.9 °F - 28.0 °F 48% 29.80 in 10.0 mi Variable 5.8 mph - N/A   Overcast
6:53 AM 48.0 °F - 28.0 °F 46% 29.80 in 10.0 mi Variable 3.5 mph - N/A   Overcast
7:53 AM 48.9 °F - 27.0 °F 43% 29.81 in 10.0 mi Variable 4.6 mph - N/A   Overcast
8:53 AM 50.0 °F - 28.0 °F 43% 29.82 in 10.0 mi Variable 5.8 mph - N/A   Overcast
9:53 AM 48.9 °F - 28.0 °F 44% 29.83 in 10.0 mi SSE 6.9 mph - N/A   Overcast
10:53 AM 48.9 °F - 28.0 °F 44% 29.84 in 10.0 mi South 9.2 mph - N/A   Overcast
11:53 AM 48.9 °F - 30.0 °F 48% 29.87 in 10.0 mi South 5.8 mph - 0.00 in   Overcast
12:53 PM 48.0 °F - 34.0 °F 58% 29.88 in 10.0 mi SSE 9.2 mph 21.9 mph 0.00 in Rain Light Rain
1:53 PM 48.0 °F - 35.1 °F 61% 29.91 in 10.0 mi SE 11.5 mph - 0.00 in Rain Light Rain
2:53 PM 46.9 °F - 35.1 °F 63% 29.93 in 10.0 mi SSE 9.2 mph - N/A   Overcast
3:53 PM 48.0 °F - 36.0 °F 63% 29.95 in 10.0 mi SSE 11.5 mph 19.6 mph 0.00 in   Overcast
4:53 PM 46.0 °F 40.6 °F 39.0 °F 76% 29.99 in 10.0 mi SSE 11.5 mph 19.6 mph 0.00 in Rain Light Rain
5:00 PM 46.4 °F 39.8 °F 39.2 °F 76% 30.00 in 7.0 mi SE 16.1 mph 26.5 mph 0.01 in Rain Light Rain
5:53 PM 44.1 °F 37.7 °F 42.1 °F 93% 30.04 in 4.0 mi SSE 12.7 mph 19.6 mph 0.14 in Rain Rain
6:53 PM 44.1 °F 38.6 °F 43.0 °F 96% 30.05 in 4.0 mi SSE 10.4 mph 18.4 mph 0.14 in Rain Light Rain
7:53 PM 43.0 °F 37.7 °F 43.0 °F 100% 30.08 in 4.0 mi SSE 9.2 mph 17.3 mph 0.08 in Rain Light Rain
8:53 PM 43.0 °F 38.8 °F 42.1 °F 97% 30.09 in 10.0 mi South 6.9 mph - 0.00 in   Overcast
9:53 PM 43.0 °F 40.3 °F 42.1 °F 97% 30.11 in 10.0 mi Variable 4.6 mph - 0.01 in Rain Light Rain
10:53 PM 44.1 °F - 42.1 °F 93% 30.12 in 10.0 mi Calm Calm - 0.00 in   Overcast
11:03 PM 44.6 °F 43.1 °F 42.8 °F 93% 30.11 in 10.0 mi Variable 3.5 mph - N/A   Overcast
11:53 PM 43.0 °F 41.3 °F 42.1 °F 97% 30.12 in 10.0 mi SE 3.5 mph - 0.01 in   Overcast